Find Starlink 5935

NORAD ID: 56453 Int'l Des: 2023-064 Owner: SPXS Country: US Constellation: starlink operational
LEOCIRCULAR

实时位置

正在加载3D地球...

关于 Starlink 5935

正在加载描述...

即将过境

Passes for default location (London). Set your location on the main map for personalized predictions.

高度历史

Loading altitude history...

两行轨道根数

1 56453U 23064F 26125.77323203 .00000470 00000-0 47123-4 0 9993
2 56453 69.9996 0.6512 0002355 270.0101 90.0788 14.98342762163797
Epoch: May 5, 2026 • Age: 17 hours

当前状态

高度 591.9 km
速度 7.56 km/s
星下点 -56.66°S, 173.02°E
发射日期 May 10, 2023
运行时间 2.9 years
类型 internet

技术详情

分类 Payload
质量 305.00 kg
干质量 290.00 kg
总质量 305.00 kg
长度 0.20 m
直径 2.80 m
跨度 9.00 m
形状 Box + pan
制造商 SPXS
平台类型 Starlink
阶段状态 In Orbit
所有者/国家 SPXS/US

Most Searched